Ульяновский

Казахстан     50˚01′58″N   73˚42′00″E
темп.,
°C
ветер,
м/с
пор.,
м/с
влажн.,
%
обл.,
%
осадки,
мм/ч
давл.,
гПа
погр.,
м
6 декабря, вс
вс600:00−19˚в459782 0.0 104170
03:00−20˚в349754 0.0 104137
06:00−20˚вюв339742 0.0 104223
09:00−20˚вюв23957 0.0 104320
12:00−16˚юв22874 0.0 104348
15:00−16˚юв12840 0.0 104220
18:00−18˚юв22850 0.0 104220
21:00−19˚юв22840 0.0 104220
7 декабря, пн
пн700:00−18˚вюв22820 0.0 104120
03:00−18˚вюв22810 0.0 103920
06:00−17˚вюв23820 0.0 103820
09:00−16˚вюв23850 0.0 103720
12:00−13˚всв12850 0.0 103723
15:00−12˚св22820 0.0 103623
18:00−14˚в12800 0.0 103620
21:00−15˚в11800 0.0 103720
8 декабря, вт
вт800:00−16˚в11780 0.0 103720
03:00−16˚ю007722 0.0 103620
06:00−15˚юз127611 0.0 103620
09:00−16˚зюз238220 0.0 103720
12:00−13˚зюз358834 0.0 1037122
15:00−12˚зюз478890 0.0 1037220
18:00−14˚зюз488889 0.0 1037186
21:00−16˚зюз598894 0.0 1038189
9 декабря, ср
ср900:00−15˚зюз599496 0.1 1038261
03:00−14˚зюз61094100 0.1 1038273
06:00−14˚зюз61194100 0.3 1037304
09:00−14˚зюз7129397 0.1 1037330
12:00−13˚зюз8139298 0.2 1035387
15:00−12˚зюз8138795 0.1 1034428
18:00−13˚зюз8149097 0.1 1033396
21:00−14˚зюз71393100 0.1 1033392
10 декабря, чт
чт1000:00−14˚з61194100 0.2 1034405
03:00−16˚з5995100 0.1 1035253
06:00−17˚зюз589699 0.4 1035214
09:00−17˚зюз4796100 0.3 1037179
12:00−15˚з469599 0.4 1038225
15:00−14˚з4695100 0.1 1038240
18:00−18˚з3499100 0.1 104041
21:00−20˚зюз34100100 0.0 104126